Date String (YYYY-MM-DD hh:mm:ss) UTC,Instrument flags,Ambient pressure (hPa),Sample flow (lpm),Bypass flow (lpm),Sample temperature (°C),Ambient temperature (°C),ASC tube jacket temperature (°C),LED temperature (°C),Box temperature (°C),Sample RH (%),Span deviation,Mass concentration (μg/m³),Mass concentration (μg/m³),Mass concentration (μg/m³)
DateTimeUTC,F1_M11,P_M11,Q1_M11,Q2_M11,T1_M11,T2_M11,T3_M11,T4_M11,T5_M11,U1_M11,ZSPAN_M11,X0_M11,X2_M11,X1_M11
2022-01-05 00:00:00,,0820.2,5.01,0.00,22.4,22.5,00.0,31.3,24.2,11.0,0000.0,0006.70,0001.42,0000.40
2022-01-05 00:01:00,,0820.2,4.99,0.00,22.4,22.3,00.0,31.3,24.1,10.9,0000.0,0007.12,0001.39,0000.40
2022-01-05 00:02:00,,0820.2,5.01,0.00,22.4,22.1,00.0,31.3,24.1,10.6,0000.0,0006.73,0001.32,0000.41
2022-01-05 00:03:00,,0820.2,5.01,0.00,22.3,22.0,00.0,31.3,24.1,10.9,0000.0,0006.02,0001.28,0000.41
2022-01-05 00:04:00,,0820.1,5.00,0.00,22.3,21.8,00.0,31.3,24.0,10.6,0000.0,0005.57,0001.20,0000.40
2022-01-05 00:05:00,,0820.2,4.99,0.00,22.3,21.7,00.0,31.3,23.9,10.7,0000.0,0005.35,0001.19,0000.40
2022-01-05 00:06:00,,0820.3,5.01,0.00,22.2,21.6,00.0,31.3,23.9,10.5,0000.0,0005.40,0001.21,0000.40
2022-01-05 00:07:00,,0820.3,5.01,0.00,22.2,21.5,00.0,31.3,23.8,10.8,0000.0,0007.39,0001.16,0000.39
2022-01-05 00:08:00,,0820.3,4.98,0.00,22.2,21.4,00.0,31.3,23.8,10.8,0000.0,0008.14,0001.16,0000.40
2022-01-05 00:09:00,,0820.3,5.01,0.00,22.1,21.3,00.0,31.2,23.8,11.0,0000.0,0008.45,0001.20,0000.41
2022-01-05 00:10:00,,0820.4,5.00,0.00,22.1,21.2,00.0,31.2,23.8,11.0,0000.0,0008.97,0001.21,0000.42
2022-01-05 00:11:00,,0820.5,5.00,0.00,22.1,21.1,00.0,31.2,23.7,11.3,0000.0,0009.95,0001.15,0000.41
2022-01-05 00:12:00,,0820.4,5.00,0.00,22.0,21.1,00.0,31.2,23.7,11.4,0000.0,0009.76,0001.18,0000.41
2022-01-05 00:13:00,,0820.5,5.00,0.00,22.0,21.1,00.0,31.2,23.6,11.4,0000.0,0010.14,0001.23,0000.41
2022-01-05 00:14:00,,0820.5,5.00,0.00,22.0,21.0,00.0,31.2,23.6,11.7,0000.0,0010.35,0001.23,0000.41
2022-01-05 00:15:00,,0820.6,5.00,0.00,21.9,20.9,00.0,31.1,23.6,11.6,0000.0,0010.29,0001.22,0000.41
2022-01-05 00:16:00,,0820.5,5.00,0.00,21.9,21.0,00.0,31.1,23.5,11.7,0000.0,0010.32,0001.18,0000.41
2022-01-05 00:17:00,,0820.6,4.99,0.00,22.0,21.7,00.0,31.1,23.8,11.8,0000.0,0010.51,0001.09,0000.41
2022-01-05 00:18:00,,0820.6,4.99,0.00,22.1,22.6,00.0,31.2,24.1,11.9,0000.0,0009.79,0001.07,0000.41
2022-01-05 00:19:00,,0820.6,5.01,0.00,22.3,23.3,00.0,31.2,24.4,11.6,0000.0,0008.91,0001.04,0000.41
2022-01-05 00:20:00,,0820.5,5.00,0.00,22.4,23.1,00.0,31.3,24.4,11.8,0000.0,0008.58,0000.98,0000.40
2022-01-05 00:21:00,,0820.5,5.00,0.00,22.4,22.7,00.0,31.3,24.2,11.8,0000.0,0008.43,0000.99,0000.40
2022-01-05 00:22:00,,0820.5,5.01,0.00,22.3,22.3,00.0,31.3,24.1,11.9,0000.0,0007.18,0001.01,0000.40
2022-01-05 00:23:00,,0820.3,4.99,0.00,22.3,22.1,00.0,31.3,24.0,12.0,0000.0,0007.10,0001.01,0000.41
2022-01-05 00:24:00,,0820.3,4.99,0.00,22.2,21.8,00.0,31.3,23.9,11.6,0000.0,0006.38,0001.00,0000.41
2022-01-05 00:25:00,,0820.4,5.01,0.00,22.2,21.7,00.0,31.3,23.8,11.5,0000.0,0006.92,0001.05,0000.41
2022-01-05 00:26:00,,0820.5,4.99,0.00,22.2,21.5,00.0,31.2,23.8,11.6,0000.0,0006.90,0001.07,0000.41
2022-01-05 00:27:00,,0820.6,5.01,0.00,22.2,21.5,00.0,31.2,23.8,11.8,0000.0,0006.79,0001.09,0000.41
2022-01-05 00:28:00,,0820.6,4.99,0.00,22.1,21.4,00.0,31.2,23.6,11.9,0000.0,0006.24,0001.07,0000.40
2022-01-05 00:29:00,,0820.6,5.00,0.00,22.1,21.3,00.0,31.2,23.6,11.9,0000.0,0006.25,0001.11,0000.41
2022-01-05 00:30:00,,0820.6,5.01,0.00,22.0,21.3,00.0,31.2,23.5,12.0,0000.0,0006.19,0001.12,0000.41
2022-01-05 00:31:00,,0820.6,4.99,0.00,22.0,21.2,00.0,31.2,23.5,11.9,0000.0,0007.05,0001.15,0000.40
2022-01-05 00:32:00,,0820.7,5.01,0.00,22.0,21.2,00.0,31.2,23.5,12.2,0000.0,0006.96,0001.13,0000.40
2022-01-05 00:33:00,,0820.7,4.98,0.00,22.0,21.1,00.0,31.1,23.5,12.1,0000.0,0006.74,0001.14,0000.40
2022-01-05 00:34:00,,0820.6,5.00,0.00,21.9,21.0,00.0,31.1,23.5,12.0,0000.0,0007.45,0001.18,0000.41
2022-01-05 00:35:00,,0820.7,5.01,0.00,21.9,21.0,00.0,31.1,23.5,12.1,0000.0,0007.38,0001.15,0000.41
2022-01-05 00:36:00,,0820.9,5.01,0.00,21.9,21.0,00.0,31.1,23.4,12.1,0000.0,0006.81,0001.14,0000.41
2022-01-05 00:37:00,,0820.8,5.00,0.00,21.9,21.6,00.0,31.1,23.6,12.3,0000.0,0006.87,0001.18,0000.42
2022-01-05 00:38:00,,0820.7,5.00,0.00,22.1,22.4,00.0,31.1,24.0,11.9,0000.0,0008.07,0001.26,0000.42
2022-01-05 00:39:00,,0820.7,4.99,0.00,22.2,23.0,00.0,31.2,24.2,11.8,0000.0,0008.20,0001.33,0000.42
2022-01-05 00:40:00,,0820.7,5.00,0.00,22.3,22.7,00.0,31.2,24.2,11.8,0000.0,0007.67,0001.26,0000.42
2022-01-05 00:41:00,,0820.9,4.99,0.00,22.3,22.4,00.0,31.2,24.0,12.0,0000.0,0007.62,0001.24,0000.41
2022-01-05 00:42:00,,0820.8,5.01,0.00,22.2,22.2,00.0,31.2,24.0,12.1,0000.0,0007.03,0001.21,0000.42
2022-01-05 00:43:00,,0820.9,4.99,0.00,22.2,22.0,00.0,31.2,23.9,12.0,0000.0,0007.33,0001.16,0000.42
2022-01-05 00:44:00,,0820.9,5.02,0.00,22.2,21.8,00.0,31.2,23.9,11.9,0000.0,0007.81,0001.16,0000.41
2022-01-05 00:45:00,,0820.9,4.99,0.00,22.2,21.6,00.0,31.2,23.8,12.1,0000.0,0007.44,0001.11,0000.40
2022-01-05 00:46:00,,0820.9,5.01,0.00,22.2,21.5,00.0,31.2,23.7,11.9,0000.0,0007.82,0001.15,0000.39
2022-01-05 00:47:00,,0820.9,4.99,0.00,22.1,21.4,00.0,31.2,23.7,11.8,0000.0,0007.77,0001.13,0000.40
2022-01-05 00:48:00,,0820.9,5.00,0.00,22.1,21.4,00.0,31.2,23.7,12.0,0000.0,0007.81,0001.12,0000.41
2022-01-05 00:49:00,,0820.9,5.01,0.00,22.1,21.3,00.0,31.2,23.7,11.8,0000.0,0006.42,0001.04,0000.41
2022-01-05 00:50:00,,0820.8,4.99,0.00,22.1,21.3,00.0,31.2,23.7,11.6,0000.0,0006.36,0001.07,0000.41
2022-01-05 00:51:00,,0820.9,5.00,0.00,22.0,21.3,00.0,31.2,23.6,11.6,0000.0,0006.59,0001.15,0000.42
2022-01-05 00:52:00,,0820.9,5.00,0.00,22.0,21.2,00.0,31.1,23.5,11.6,0000.0,0007.39,0001.24,0000.44
2022-01-05 00:53:00,,0820.9,5.01,0.00,22.0,21.1,00.0,31.1,23.5,11.2,0000.0,0007.42,0001.26,0000.43
2022-01-05 00:54:00,,0820.9,5.00,0.00,21.9,21.1,00.0,31.1,23.4,11.7,0000.0,0006.42,0001.31,0000.43
2022-01-05 00:55:00,,0820.9,5.00,0.00,21.9,21.0,00.0,31.1,23.4,11.7,0000.0,0005.64,0001.29,0000.42
2022-01-05 00:56:00,,0820.8,5.01,0.00,21.9,21.1,00.0,31.1,23.5,11.9,0000.0,0005.60,0001.33,0000.44
2022-01-05 00:57:00,,0820.8,5.00,0.00,22.0,21.9,00.0,31.1,23.8,11.5,0000.0,0005.30,0001.33,0000.44
2022-01-05 00:58:00,,0821.0,5.01,0.00,22.2,22.7,00.0,31.2,24.1,11.1,0000.0,0005.37,0001.39,0000.43
2022-01-05 00:59:00,,0821.0,5.00,0.00,22.3,23.0,00.0,31.2,24.2,11.2,0000.0,0005.21,0001.42,0000.43
